KN4CI-1 Weather Reports


Display with metric or nautical units.
time (UTC)temp
F
wind
direction
speed
MPH
gust
MPH
rain 1hr
in
rain 24hr
in
rain mn
in
humidity
%
barometer
mb
20260509103626 58 249 0.0 0.0 0.00 0.00 0.00 49 1011.6
20260509103126 58 249 0.0 0.0 0.00 0.00 0.00 48 1011.6
20260509102122 58 249 3.0 4.0 0.00 0.00 0.00 48 1011.6
20260509100619 58 247 0.0 5.0 0.00 0.00 0.00 47 1010.6
20260509100120 58 166 0.0 0.0 0.00 0.00 0.00 47 1010.6
20260509095115 58 166 0.0 0.0 0.00 0.00 0.00 47 1011.6
20260509094113 57 166 0.0 0.0 0.00 0.00 0.00 47 1011.6
20260509093114 57 166 0.0 0.0 0.00 0.00 0.00 47 1011.6
20260509091107 57 166 3.0 0.0 0.00 0.00 0.00 45 1011.6
20260509090609 57 166 0.0 0.0 0.00 0.00 0.00 45 1011.6
20260509085605 57 166 0.0 0.0 0.00 0.00 0.00 45 1011.6
20260509085105 56 166 0.0 0.0 0.00 0.00 0.00 45 1011.6
20260509084606 56 166 0.0 0.0 0.00 0.00 0.00 45 1011.6
20260509084102 56 166 0.0 0.0 0.00 0.00 0.00 45 1011.6
20260509082557 57 166 0.0 4.0 0.00 0.00 0.00 43 1011.6
20260509082057 57 166 0.0 0.0 0.00 0.00 0.00 44 1012.6
20260509081558 57 166 0.0 3.0 0.00 0.00 0.00 44 1012.6
20260509081053 57 166 0.0 5.0 0.00 0.00 0.00 44 1012.6
20260509075548 57 166 0.0 0.0 0.00 0.00 0.00 44 1011.6
20260509074038 56 166 0.0 0.0 0.00 0.00 0.00 43 1012.6
20260509073538 56 166 0.0 0.0 0.00 0.00 0.00 43 1011.6
20260509073036 56 166 0.0 0.0 0.00 0.00 0.00 43 1011.6
20260509072533 56 166 0.0 0.0 0.00 0.00 0.00 43 1011.6
20260509072034 56 166 0.0 0.0 0.00 0.00 0.00 43 1011.6
20260509071533 56 166 0.0 0.0 0.00 0.00 0.00 43 1011.6
20260509071028 56 166 0.0 0.0 0.00 0.00 0.00 43 1011.6
20260509070529 56 166 0.0 0.0 0.00 0.00 0.00 43 1011.6
20260509070029 55 166 0.0 0.0 0.00 0.00 0.00 43 1011.6
20260509063021 54 166 0.0 0.0 0.00 0.00 0.00 42 1012.6
20260509062019 53 166 0.0 0.0 0.00 0.00 0.00 41 1011.6
20260509060517 54 166 0.0 0.0 0.00 0.00 0.00 40 1011.6
20260509060018 54 166 0.0 0.0 0.00 0.00 0.00 39 1011.6
20260509055514 54 166 0.0 0.0 0.00 0.00 0.00 39 1011.6
20260509055017 54 166 0.0 0.0 0.00 0.00 0.00 39 1011.6
20260509054515 54 166 0.0 0.0 0.00 0.00 0.00 39 1011.6
20260509054011 54 166 0.0 0.0 0.00 0.00 0.00 39 1011.6
20260509052506 54 166 0.0 0.0 0.00 0.00 0.00 38 1012.6
20260509052005 54 166 0.0 0.0 0.00 0.00 0.00 38 1012.6
20260509051505 54 166 0.0 0.0 0.00 0.00 0.00 37 1012.6
20260509051004 54 166 0.0 0.0 0.00 0.00 0.00 37 1012.6
20260509045455 54 166 0.0 0.0 0.00 0.00 0.00 36 1012.6
20260509043949 55 166 0.0 0.0 0.00 0.00 0.00 36 1012.6
20260509043447 55 166 0.0 0.0 0.00 0.00 0.00 35 1012.6
20260509042948 55 166 0.0 0.0 0.00 0.00 0.00 35 1012.6
20260509035944 55 166 0.0 0.0 0.00 0.00 0.00 34 1012.6
20260509035441 55 166 0.0 0.0 0.00 0.00 0.00 33 1012.6
20260509034942 56 166 0.0 0.0 0.00 0.00 0.00 32 1012.6
20260509034442 56 166 0.0 0.0 0.00 0.00 0.00 32 1012.6
20260509033936 56 166 0.0 0.0 0.00 0.00 0.00 31 1012.6
20260509033438 56 166 0.0 0.0 0.00 0.00 0.00 31 1012.6
20260509032433 56 166 0.0 0.0 0.00 0.00 0.00 29 1012.6
20260509030430 57 166 0.0 0.0 0.00 0.00 0.00 28 1013.6
20260509025931 57 166 0.0 0.0 0.00 0.00 0.00 28 1013.6
20260509025426 57 166 0.0 0.0 0.00 0.00 0.00 27 1013.6
20260509023921 58 166 0.0 0.0 0.00 0.00 0.00 26 1013.6
20260509022922 58 166 0.0 0.0 0.00 0.00 0.00 26 1012.6
20260509021920 58 166 0.0 0.0 0.00 0.00 0.00 25 1013.6
20260509020916 59 166 0.0 0.0 0.00 0.00 0.00 24 1013.6
20260509015412 60 166 0.0 0.0 0.00 0.00 0.00 24 1013.6
20260509013909 60 166 0.0 0.0 0.00 0.00 0.00 21 1012.6
20260509013410 61 166 0.0 0.0 0.00 0.00 0.00 21 1012.6
20260509012910 61 166 0.0 0.0 0.00 0.00 0.00 21 1012.6
20260509012408 62 166 0.0 0.0 0.00 0.00 0.00 18 1012.6
20260509011408 63 166 0.0 0.0 0.00 0.00 0.00 18 1012.6
20260509004904 64 166 3.0 4.0 0.00 0.00 0.00 18 1013.6
20260509004404 65 159 0.0 0.0 0.00 0.00 0.00 18 1013.6
20260509002902 66 159 0.0 0.0 0.00 0.00 0.00 17 1012.6
20260509002356 66 159 0.0 0.0 0.00 0.00 0.00 17 1012.6
20260509000355 66 158 0.0 6.0 0.00 0.00 0.00 17 1012.6
20260508235853 67 159 0.0 4.0 0.00 0.00 0.00 17 1012.6
20260508234851 67 199 0.0 0.0 0.00 0.00 0.00 17 1012.6
20260508234352 68 199 0.0 0.0 0.00 0.00 0.00 17 1012.6
20260508233350 69 199 0.0 3.0 0.00 0.00 0.00 17 1012.6
20260508231848 71 160 4.0 6.0 0.00 0.00 0.00 17 1013.6
20260508231348 72 255 3.0 8.0 0.00 0.00 0.00 16 1013.6
20260508230846 73 167 5.0 5.0 0.00 0.00 0.00 16 1013.6
20260508230346 73 192 3.0 6.0 0.00 0.00 0.00 16 1013.6
20260508225847 74 178 3.0 5.0 0.00 0.00 0.00 16 1013.6
20260508224844 73 167 4.0 5.0 0.00 0.00 0.00 16 1013.6
20260508224344 73 152 4.0 7.0 0.00 0.00 0.00 16 1013.6
20260508221335 72 247 5.0 8.0 0.00 0.00 0.00 16 1013.6
20260508220328 73 190 3.0 7.0 0.00 0.00 0.00 16 1013.6
20260508215829 72 249 3.0 10.0 0.00 0.00 0.00 16 1013.6
20260508215326 73 261 4.0 10.0 0.00 0.00 0.00 16 1013.6
20260508214317 74 261 4.0 5.0 0.00 0.00 0.00 16 1013.6
20260508212808 73 167 3.0 5.0 0.00 0.00 0.00 16 1013.6
20260508212306 74 169 4.0 7.0 0.00 0.00 0.00 16 1013.6
20260508205746 75 250 0.0 7.0 0.00 0.00 0.00 15 1013.6
20260508204243 75 254 3.0 7.0 0.00 0.00 0.00 15 1013.6
20260508203738 75 145 4.0 6.0 0.00 0.00 0.00 15 1013.6
20260508202738 75 256 4.0 7.0 0.00 0.00 0.00 15 1013.6
20260508202236 75 245 3.0 5.0 0.00 0.00 0.00 15 1013.6
20260508201735 76 215 3.0 6.0 0.00 0.00 0.00 15 1013.6
20260508201236 76 136 3.0 7.0 0.00 0.00 0.00 15 1013.6
20260508195734 75 135 3.0 6.0 0.00 0.00 0.00 15 1014.6
20260508195232 74 249 4.0 7.0 0.00 0.00 0.00 15 1013.6
20260508193225 74 109 4.0 5.0 0.00 0.00 0.00 15 1014.6
20260508191217 74 168 4.0 6.0 0.00 0.00 0.00 16 1014.6
20260508190713 74 80 4.0 6.0 0.00 0.00 0.00 16 1014.6
20260508190213 74 101 5.0 6.0 0.00 0.00 0.00 16 1014.6
20260508185209 74 135 4.0 7.0 0.00 0.00 0.00 15 1014.6
20260508184705 74 108 0.0 7.0 0.00 0.00 0.00 15 1014.6
20260508183701 73 110 0.0 6.0 0.00 0.00 0.00 16 1014.6
20260508183202 73 165 3.0 7.0 0.00 0.00 0.00 16 1014.6
20260508182702 73 125 5.0 6.0 0.00 0.00 0.00 16 1014.6
20260508181653 73 103 4.0 6.0 0.00 0.00 0.00 16 1015.6
20260508180648 73 121 5.0 3.0 0.00 0.00 0.00 16 1015.6
20260508175648 74 150 3.0 5.0 0.00 0.00 0.00 16 1015.6
20260508175146 73 94 4.0 4.0 0.00 0.00 0.00 16 1015.6
20260508174646 73 115 0.0 6.0 0.00 0.00 0.00 16 1015.6
20260508174147 72 113 4.0 8.0 0.00 0.00 0.00 16 1015.6
20260508173236 72 153 0.0 7.0 0.00 0.00 0.00 16 1016.6
20260508173145 72 153 0.0 7.0 0.00 0.00 0.00 16 1016.6
20260508172645 72 164 3.0 6.0 0.00 0.00 0.00 16 1016.6
20260508172143 72 108 0.0 5.0 0.00 0.00 0.00 16 1016.6
20260508171643 72 192 0.0 6.0 0.00 0.00 0.00 16 1016.6
20260508170640 71 252 4.0 5.0 0.00 0.00 0.00 16 1016.6
20260508170141 71 78 4.0 6.0 0.00 0.00 0.00 16 1016.6
20260508165138 71 129 4.0 7.0 0.00 0.00 0.00 16 1017.6
20260508164639 71 96 4.0 7.0 0.00 0.00 0.00 17 1017.6
20260508164129 71 91 4.0 8.0 0.00 0.00 0.00 17 1017.6
20260508163625 70 234 3.0 4.0 0.00 0.00 0.00 17 1017.6
20260508163124 70 160 3.0 8.0 0.00 0.00 0.00 17 1017.6
20260508162119 70 158 5.0 11.0 0.00 0.00 0.00 17 1017.6
20260508161619 69 120 3.0 9.0 0.00 0.00 0.00 17 1017.6
20260508161119 69 112 5.0 6.0 0.00 0.00 0.00 17 1017.6
20260508160617 69 115 5.0 8.0 0.00 0.00 0.00 17 1017.6
20260508160109 68 98 4.0 7.0 0.00 0.00 0.00 17 1017.6
20260508155610 68 59 4.0 8.0 0.00 0.00 0.00 17 1017.6
20260508155105 68 47 5.0 8.0 0.00 0.00 0.00 17 1017.6
20260508154605 68 147 5.0 6.0 0.00 0.00 0.00 17 1017.6
20260508154106 67 83 4.0 8.0 0.00 0.00 0.00 17 1017.6
20260508153603 67 146 4.0 8.0 0.00 0.00 0.00 17 1017.6
20260508153103 67 168 6.0 7.0 0.00 0.00 0.00 17 1017.6
20260508152601 67 120 5.0 9.0 0.00 0.00 0.00 17 1017.6
20260508152058 66 137 6.0 7.0 0.00 0.00 0.00 17 1017.6
20260508151553 66 82 5.0 8.0 0.00 0.00 0.00 17 1017.6
20260508150049 65 100 6.0 7.0 0.00 0.00 0.00 17 1017.6
20260508144544 64 84 4.0 8.0 0.00 0.00 0.00 18 1017.6
20260508143038 63 175 4.0 7.0 0.00 0.00 0.00 18 1018.6
20260508142030 63 81 3.0 5.0 0.00 0.00 0.00 18 1018.6
20260508141531 62 167 4.0 7.0 0.00 0.00 0.00 18 1018.6
20260508135524 60 158 6.0 7.0 0.00 0.00 0.00 25 1018.6
20260508135022 60 147 4.0 5.0 0.00 0.00 0.00 26 1018.6
20260508134503 59 161 4.0 7.0 0.00 0.00 0.00 29 1018.6
20260508133445 59 105 4.0 5.0 0.00 0.00 0.00 36 1018.6
20260508132446 58 136 0.0 4.0 0.00 0.00 0.00 43 1018.6
20260508131940 57 136 3.0 4.0 0.00 0.00 0.00 47 1018.6
20260508131441 56 154 4.0 4.0 0.00 0.00 0.00 49 1018.6
20260508130942 56 332 0.0 0.0 0.00 0.00 0.00 54 1018.6
20260508130435 56 332 0.0 0.0 0.00 0.00 0.00 56 1018.6
20260508125934 55 332 0.0 0.0 0.00 0.00 0.00 57 1018.6
20260508125431 55 332 0.0 0.0 0.00 0.00 0.00 57 1018.6
20260508123930 53 332 0.0 0.0 0.00 0.00 0.00 57 1017.6
20260508123423 53 332 0.0 0.0 0.00 0.00 0.00 57 1017.6
20260508122424 52 332 0.0 0.0 0.00 0.00 0.00 57 1017.6
20260508121918 51 332 0.0 0.0 0.00 0.00 0.00 56 1017.6
20260508121419 51 332 0.0 0.0 0.00 0.00 0.00 56 1017.6
20260508120919 50 332 0.0 0.0 0.00 0.00 0.00 56 1017.6
20260508120416 50 332 0.0 0.0 0.00 0.00 0.00 55 1017.6
20260508115915 49 332 0.0 0.0 0.00 0.00 0.00 55 1017.6
20260508115414 49 332 0.0 0.0 0.00 0.00 0.00 56 1017.6
20260508114911 48 332 0.0 0.0 0.00 0.00 0.00 55 1017.6
20260508113910 48 332 0.0 0.0 0.00 0.00 0.00 54 1017.6
20260508113403 48 332 0.0 0.0 0.00 0.00 0.00 54 1017.6
20260508112903 47 332 0.0 0.0 0.00 0.00 0.00 53 1017.6
20260508111854 47 332 0.0 0.0 0.00 0.00 0.00 53 1017.6
20260508111354 47 332 0.0 0.0 0.00 0.00 0.00 53 1017.6
20260508110855 47 332 0.0 0.0 0.00 0.00 0.00 53 1017.6
20260508110352 47 332 0.0 0.0 0.00 0.00 0.00 53 1017.6
20260508105851 47 332 0.0 0.0 0.00 0.00 0.00 52 1017.6
20260508105350 47 332 0.0 0.0 0.00 0.00 0.00 52 1017.6